Regional Weather Roundup
Issued by NWS Upton, NY

Current Version | Previous Version | Text Only | Print | Product List | Glossary On
Versions: 1 2 3 4 5 6 7 8 9 10 11 12 13 14 15 16 17 18 19 20 21 22 23 24 25 26 27
000
ASUS41 KOKX 260708
RWROKX

REGIONAL WEATHER ROUNDUP
NATIONAL WEATHER SERVICE NEW YORK NY
200 AM EST SUN FEB 26 2017

NOTE: "FAIR" INDICATES FEW OR NO CLOUDS BELOW 12,000 FEET WITH NO
SIGNIFICANT WEATHER AND/OR OBSTRUCTIONS TO VISIBILITY.

NYZ071-072-176-178-NJZ106-104-260800-
NEW YORK CITY METRO AREA

CITY           SKY/WX    TMP DP  RH WIND       PRES   REMARKS
Central Park   CLOUDY    41  31  67 VRB7G18   29.74R
Wall St Helipt NOT AVBL
LaGuardia APRT MOCLDY    44  30  57 NW17G29   29.72R
Kennedy INTL   MOCLDY    44  32  62 NW21G31   29.73R
Breezy Point     N/A     41 N/A N/A NW14G20     N/A
Newark/Liberty CLOUDY    43  31  62 W17G30    29.73R
Teterboro      CLOUDY    43  30  60 NW14G21   29.72R
$$

NYZ177-179-078>081-260800-
LONG ISLAND NEW YORK

CITY           SKY/WX    TMP DP  RH WIND       PRES   REMARKS
Jones Beach      N/A     43 N/A N/A NW20G26     N/A
Matinecock PT    N/A     43 N/A N/A NW30G38     N/A
Farmingdale    MOCLDY    42  30  62 NW15G32   29.71R
MacArthur/ISP  CLOUDY    42  34  73 NW10      29.68R
Shirley        CLOUDY    42  36  79 NW9G20    29.68R
Westhampton    CLOUDY    42  34  73 NW12      29.68R
Southampton    NOT AVBL
Bridgehampton  NOT AVBL
East Hampton   MOCLDY    41  30  64 NW8       29.65R
Montauk          N/A     43  35  73 W15G22    29.64R
$$

NYZ052-065-067-260800-
HUDSON VALLEY

CITY           SKY/WX    TMP DP  RH WIND       PRES   REMARKS
White Plains   PTCLDY    39  27  62 NW22G28   29.69R WCI  29
Newburgh       CLOUDY    37  28  70 NW14G25   29.72R WCI  29
Montgomery     CLOUDY    39  25  57 NW14G21   29.71R WCI  31
Poughkeepsie   CLOUDY    39  26  59 W22G30    29.70R WCI  29
Albany         CLOUDY    35  25  66 W20G30    29.70R WCI  24
$$

NJZ001-105-106-008-010-013-015-019>022-104-260800-
NEW JERSEY

CITY           SKY/WX    TMP DP  RH WIND       PRES   REMARKS
Newark/Liberty CLOUDY    43  31  62 W17G30    29.73R
Teterboro      CLOUDY    43  30  60 NW14G21   29.72R
Caldwell       CLOUDY    42  29  59 NW10      29.74R
Somerville     CLOUDY    41  34  76 VRB3      29.75R
Linden         NOT AVBL
Sussex         CLOUDY    38  26  62 NW9       29.75R WCI  31
Andover          N/A     38  29  70 NW8       29.74R WCI  32
Trenton        CLEAR     41  25  53 NW15G24   29.77R
Millville      MOCLDY    42  29  59 W10       29.82R
Atlantic City  CLEAR     42  27  55 W13       29.79R
Wrightstown    CLEAR     42  25  51 NW17G23   29.76R
Toms River     CLEAR     41  27  57 W15G22    29.78R
Belmar         CLOUDY    42  34  73 W14G21    29.76
$$

PAZ047>061-062-071-260800-
EASTERN PENNSYLVANIA

CITY           SKY/WX    TMP DP  RH WIND       PRES   REMARKS
Philadelphia   PTCLDY    44  25  47 NW20G29   29.83R
Allentown      CLOUDY    40  24  53 W14G25    29.79R WCI  32
Scranton       CLOUDY    34  26  72 NW20      29.77R WCI  23
$$

CTZ002-004>006-009-010-012-RIZ004-006-007-MAZ004-011-015-260800-
SOUTHERN NEW ENGLAND
 IN CT

CITY           SKY/WX    TMP DP  RH WIND       PRES   REMARKS
Bradley INTL   CLOUDY    39  28  64 NW18G35   29.64R WCI  30
Hartford       CLOUDY    40  28  62 NW12G25   29.65R WCI  33
Danbury        CLOUDY    40  31  70 W8        29.68R WCI  34
Wtrbury/Oxford CLOUDY    37  27  65 NW7       29.66R WCI  32
Bridgeport     CLOUDY    43  33  68 NW14G23   29.68R
Meriden        CLOUDY    42  28  57 NW12G21   29.66R
New Haven      MOCLDY    42  32  67 NW8       29.67R
Chester          N/A     41  30  65 NW13G20   29.64R
Groton         CLOUDY    42  31  64 NW15G33   29.63R
Wilimantic     CLOUDY    42  32  67 NW13G22   29.60R

 IN RI

CITY           SKY/WX    TMP DP  RH WIND       PRES   REMARKS
Providence     PTCLDY    44  33  65 NW17G25   29.56R
Block Island   MOCLDY    43  35  73 NW14G20   29.61R
Westerly       PTCLDY    44  31  60 VRB7G31   29.62R
 IN MA

CITY           SKY/WX    TMP DP  RH WIND       PRES   REMARKS
Boston         MOCLDY    43  37  79 W15G25    29.52R
Worcester      CLOUDY    37  29  72 W18G33    29.52R WCI  27
Westfield      MOCLDY    39  29  67 NW21G32   29.62R WCI  29
Provincetown   CLOUDY    45  41  86 W20       29.48R
Nantucket      MOCLDY    47  46  97 W13G24    29.50R
$$

ANZ330-335-338-340-345-350-353-355-260800-
COASTAL MARINE OBSERVATIONS


STATION/POSITION TIME  SKY/WX   TEMP    WIND        PRES    VSBY  WAVE
                                AIR SEA DIR/SP/G                  HT/PER
                 (UTC)          (F)     (DEG/KT/KT) (MB)    (MI)  (FT/S)
NY HARB ENTRANCE 0550            45 44  320/ 19/ 25 1004.9          5/11
20 S FIRE ISLAND 0650            44 44  310/ 16/ 19 1005.5          5/10
GREAT SOUTH BAY  NOT AVBL
23 SSW MONTAUK P 0550            44 45              1002.6          7/11
15 E BARNEGAT LI 0630               44                N/A           6/11
HUDSON CANYON    0550               47              1003.7          7/11
KINGS POINT      0648            41 41              1006.3
EXECUTION ROCKS  NOT AVBL
CENTRAL LI SOUND 0630            42     300/ 17/ 21   N/A           2/ 3
EASTERN LI SOUND NOT AVBL
ROBBINS REEF     0648            43     310/ 18/ 20 1006.8
$$


>>>>>>>>>>>>>>>>>>>>>>>>>>>> KEY <<<<<<<<<<<<<<<<<<<<<<<<<<<
>                                                          <
>     SKY/WX - Sky Condition/Present Weather               <
>     TMP    - Temperature in Fahrenheit                   <
>     DP     - Dew Point in Fahrenheit                     <
>     RH     - Relative Humidity in Percent                <
>     WIND   - Direction (from) and Speed in MPH           <
>     PRES   - Mean Sea Level Pressure (inches of Hg)      <
>     WCI    - Wind Chill Index                            <
>     VSB    - VISIBILITY IN MILES                         <
>     HX     - HEAT INDEX                                  <
>     TC     - TEMPERATURE IN CELSIUS                      <
>     VRB    - VARIABLE WIND DIRECTION                     <
>                                                          <
>>>>>>>>>>>>>>>>>>>>>>>>>>>> KEY <<<<<<<<<<<<<<<<<<<<<<<<<<<




USA.gov is the U.S. government's official web portal to all federal, state and local government web resources and services.